sat.trackr.live / text

‹ back to catalog

CAMOES

NORAD 68507 · 2026-067CV

PAYLOAD ACTIVE UNKNOWN

§ Identity

Operator
Country
POR
Launch date
2026-03-30
Launch site
AFWTR
Launch vehicle
Mass (kg)
RCS (m²)

External: N2YO · Heavens-Above · Gunter

§ Orbital elements

Epoch: 2026-09-20T01:59:36.989664Z

Period
94.76 min
Inclination
97.4745°
Eccentricity
0.0004983
Mean motion
15.19582065 rev/d
Perigee alt
503.7 km
Apogee alt
510.5 km
Semi-major
6,885.2 km
B*
2.9471e-4
RAAN
220.4585°
Arg perigee
97.4069°
Mean anomaly
262.7732°
Rev number
2,632

§ Raw data

CAMOES1 68507U 26067CV  26263.08306701  .00006205  00000+0  29471-3 0  99992 68507  97.4745 220.4585 0004983  97.4069 262.7732 15.19582065 26323

JSON: /api/v1/satellites/68507 · /tle

For live sub-satellite position, see the globe view (requires WebGL).

§ Visibility from observer

Set your observer location to see the next 7 days of passes ≥ 10°. The values pass through the URL so the page stays shareable.

No JS? Fill the form by hand. The geolocation button needs JavaScript.